Location: Borgo
(42.3939°N, 9.2791°E)
Time: 19:09:03
(UTC+00:00)

SL-08 RB Rocket - Pass Details

Date: 24 January 2021
Orbit: 647 x 683 km, 97.8° (Epoch: 03 March)

Event Time Altitude Azimuth Distance (km) Brightness Sun altitude
Exits shadow 18:32:25 44° 15° (NNE) 902 4.2 -23.1°
Drops below altitude 10° 18:35:39 10° 354° (N) 2,066 6.2 -23.7°
Sets 18:37:53 0° 351° (N) 2,978 7.1 -24.1°
